CA2JAT-13 Weather Reports


Display with metric or nautical units.
time (UTC)temp
F
wind
direction
speed
MPH
gust
MPH
rain 1hr
in
rain 24hr
in
rain mn
in
humidity
%
barometer
mb
20260509102018 40 61 2.0 0.0 0.00 0.00 0.00 59 1017.4
20260509095014 41 62 2.0 0.0 0.00 0.00 0.00 57 1016.9
20260509092010 43 51 4.0 0.0 0.00 0.00 0.00 54 1016.6
20260509085006 43 57 4.0 0.0 0.00 0.00 0.00 54 1016.9
20260509082002 42 71 3.0 0.0 0.00 0.00 0.00 56 1017.0
20260509074959 43 50 3.0 0.0 0.00 0.00 0.00 57 1017.0
20260509071956 44 61 3.0 0.0 0.00 0.00 0.00 54 1017.3
20260509064952 44 63 4.0 0.0 0.00 0.00 0.00 56 1017.5
20260509061948 45 53 2.0 0.0 0.00 0.00 0.00 54 1017.5
20260509054945 46 62 3.0 0.0 0.00 0.00 0.00 54 1017.6
20260509051942 46 80 1.0 0.0 0.00 0.00 0.00 54 1017.9
20260509044938 47 76 2.0 0.0 0.00 0.00 0.00 53 1017.7
20260509041935 48 54 3.0 0.0 0.00 0.00 0.00 53 1017.7
20260509034932 49 75 2.0 0.0 0.00 0.00 0.00 51 1017.7
20260509031929 50 54 3.0 0.0 0.00 0.00 0.00 48 1017.7
20260509024920 51 65 3.0 0.0 0.00 0.00 0.00 47 1017.5
20260509021917 51 61 4.0 0.0 0.00 0.00 0.00 47 1017.3
20260509014914 53 73 2.0 0.0 0.00 0.00 0.00 46 1016.4
20260509011821 55 55 3.0 0.0 0.00 0.00 0.00 43 1016.1
20260509004816 56 47 3.0 0.0 0.00 0.00 0.00 42 1016.0
20260509001813 58 65 3.0 0.0 0.00 0.00 0.00 39 1015.3
20260508234809 60 24 1.0 0.0 0.00 0.00 0.00 36 1014.9
20260508231806 64 290 0.0 0.0 0.00 0.00 0.00 31 1014.0
20260508224803 68 243 0.0 0.0 0.00 0.00 0.00 26 1013.2
20260508221800 71 265 4.0 0.0 0.00 0.00 0.00 24 1012.2
20260508214756 74 265 5.0 0.0 0.00 0.00 0.00 22 1011.4
20260508211753 76 293 1.0 0.0 0.00 0.00 0.00 19 1010.8
20260508204750 78 265 4.0 0.0 0.00 0.00 0.00 18 1010.3
20260508202642 79 267 4.0 0.0 0.00 0.00 0.00 17 1010.1
20260508195639 80 271 3.0 0.0 0.00 0.00 0.00 15 1010.4
20260508193751 81 257 4.0 0.0 0.00 0.00 0.00 15 1010.4
20260508190747 80 257 4.0 0.0 0.00 0.00 0.00 13 1010.7
20260508183744 80 259 4.0 0.0 0.00 0.00 0.00 14 1010.8
20260508180741 78 250 4.0 0.0 0.00 0.00 0.00 13 1011.4
20260508173737 78 258 2.0 0.0 0.00 0.00 0.00 14 1011.6
20260508170732 75 289 1.0 0.0 0.00 0.00 0.00 16 1012.7
20260508163729 73 329 0.0 0.0 0.00 0.00 0.00 19 1013.3
20260508160726 69 231 1.0 0.0 0.00 0.00 0.00 23 1014.1
20260508153722 66 155 0.0 0.0 0.00 0.00 0.00 26 1014.9
20260508150718 64 253 1.0 0.0 0.00 0.00 0.00 31 1016.1
20260508143715 63 247 0.0 0.0 0.00 0.00 0.00 38 1016.3
20260508140711 62 89 0.0 0.0 0.00 0.00 0.00 35 1016.7
20260508133707 54 74 2.0 0.0 0.00 0.00 0.00 51 1018.0
20260508130614 49 54 2.0 0.0 0.00 0.00 0.00 62 1018.6
20260508123610 43 60 2.0 0.0 0.00 0.00 0.00 74 1019.1
20260508120607 44 60 3.0 0.0 0.00 0.00 0.00 74 1018.8
20260508113603 44 63 2.0 0.0 0.00 0.00 0.00 73 1018.3
20260508110600 45 50 2.0 0.0 0.00 0.00 0.00 71 1018.3
20260508103556 45 33 2.0 0.0 0.00 0.00 0.00 71 1018.2